Bratts Lake, Saskatchewan

3:13 PM CST on October 19, 2017 (GMT -0600)
Bratts Lake

Weather History for CXBK - October, 2012

Change the Weather History Date:

Sunday, October 7, 2012

  Actual Average (CYQR) Record (CYQR)
Temperature  
Mean Temperature 36 °F -  
Max Temperature 46 °F 54 °F 84 °F (2003)
Min Temperature 25 °F 29 °F 8 °F (2000)
Degree Days  
Heating Degree Days 30    
Moisture  
Dew Point 30 °F    
Average Humidity 69    
Maximum Humidity 88    
Minimum Humidity 36    
Precipitation  
Precipitation 0.00 in - - ()
Sea Level Pressure  
Sea Level Pressure 29.84 in    
Wind  
Wind Speed 6 mph ()    
Max Wind Speed 10 mph    
Max Gust Speed -    
Averages and records for this station are not official NWS values.
T = Trace of Precipitation, MM = Missing Value Source: Averaged Metar Reports

Daily Weather History Graph

Daily Weather History Graph

Search for Another Location

Airport or City:

Trip Planner

Search our weather history database for the weather conditions in past years. The results will help you decide how hot, cold, wet, or windy it might be!

Date:

Astronomy

Oct. 07, 2012 Rise Set
Actual Time 7:09 AM CST 6:22 PM CST
Civil Twilight 6:36 AM CST 6:55 PM CST
Nautical Twilight 5:59 AM CST 7:32 PM CST
Astronomical Twilight 5:21 AM CST 8:10 PM CST
Moon 11:13 PM CST (10/7) 2:12 PM CST (10/7)
Length of Visible Light 12h 18m
Length of Day
11h 13m
Waning Gibbous, 55% of the Moon is Illuminated
Oct 7
Waning Gibbous
Oct 8
Last Quarter
Oct 15
New
Oct 21
First Quarter
Oct 29
Full

Hourly Weather History & Observations

Time (CST) Temp. Dew Point Humidity Pressure Visibility Wind Dir Wind Speed Gust Speed Precip Events Conditions
12:00 AM 41 °F 23 °F 36% 29.97 in - 5.8 mph - -  
12:00 AM 40.8 °F 23.2 °F 50% 29.97 in - North - - N/A   Unknown
1:00 AM 34.2 °F 22.8 °F 63% 29.97 in - North - - N/A   Unknown
2:00 AM 31.8 °F 22.6 °F 69% 29.97 in - North - - N/A   Unknown
3:00 AM 31.6 °F 24.4 °F 75% 29.95 in - North - - N/A   Unknown
4:00 AM 30.9 °F 23.7 °F 75% 29.94 in - North - - N/A   Unknown
5:00 AM 30.0 °F 25.2 °F 82% 29.94 in - North - - N/A   Unknown
6:00 AM 28 °F 24 °F 80% 29.96 in - 10.4 mph - -  
6:00 AM 28.4 °F 24.3 °F 84% 29.96 in - North - - N/A   Unknown
7:00 AM 26.2 °F 23.0 °F 88% 29.95 in - North - - N/A   Unknown
8:00 AM 28.4 °F 24.8 °F 86% 29.95 in - North - - N/A   Unknown
9:00 AM 36.5 °F 28.0 °F 71% 29.94 in - North - - N/A   Unknown
10:00 AM 41.2 °F 29.8 °F 64% 29.93 in - North - - N/A   Unknown
12:00 PM 45 °F 30 °F 43% 29.90 in - 6.9 mph - -  
12:00 PM 44.6 °F 29.8 °F 56% 29.90 in - North - - N/A   Unknown
1:00 PM 46.6 °F 29.5 °F 51% 29.87 in - North - - N/A   Unknown
2:00 PM 44.1 °F 35.6 °F 72% 29.84 in - North - - N/A   Unknown
3:00 PM 45.0 °F 35.4 °F 69% 29.81 in - North - - N/A   Unknown
4:00 PM 44.6 °F 37.2 °F 75% 29.77 in - North - - N/A   Unknown
5:00 PM 45.5 °F 37.0 °F 72% 29.75 in - North - - N/A   Unknown
6:00 PM 44 °F 36 °F 66% 29.71 in - 9.2 mph - -  
6:00 PM 44.4 °F 36.5 °F 74% 29.71 in - North - - N/A   Unknown
7:00 PM 43.9 °F 35.8 °F 73% 29.68 in - North - - N/A   Unknown
8:00 PM 41.5 °F 34.5 °F 76% 29.64 in - North - - N/A   Unknown
9:00 PM 42.8 °F 35.4 °F 75% 29.61 in - North - - N/A   Unknown
10:00 PM 43.9 °F 36.5 °F 75% 29.59 in - North - - N/A   Unknown
11:00 PM 46.4 °F 37.2 °F 70% 29.60 in - North - - N/A   Unknown